Simultaneous Nadir Overpasses (SNOs) Predictions

Prediction of SNOs near US between AQUA and NPP Satellite Orbit:

Table of predicted SNOs near US for the next 10.0 days since TLE Epoch: 11/1/2014
Index Date (AQUA) Time (AQUA) AQUA Lat,Lon Date (NPP) Time (NPP) NPP Lat,Lon Distance(km) Time Diff (sec)
1 11/02/2014 20:14:45 49.97,-109.63 11/02/2014 20:06:57 50.13,-108.87 56.76 468
2 11/05/2014 17:27:29 48.61, -67.34 11/05/2014 17:27:52 48.41, -68.48 86.83 23
3 11/05/2014 19:03:51 39.61, -88.88 11/05/2014 19:06:45 39.33, -90.49 141.47 174
4 11/05/2014 20:40:14 30.62,-111.03 11/05/2014 20:45:38 30.18,-113.12 206.66 324
5 11/08/2014 06:56:32 20.02, -77.23 11/08/2014 06:53:01 19.91, -76.73 54.00 211
6 11/08/2014 08:32:29 30.62, -99.34 11/08/2014 08:31:28 30.62, -99.33 1.25 61
7 11/08/2014 10:05:59 49.91,-117.77 11/08/2014 10:07:25 49.94,-118.05 20.34 86




NCC Satellite Simultaneous Nadir Overpasses (SNOs) Prediction Service
